Clarksburg, WV

1:11 AM EST on December 09, 2019 (GMT -0500)
Benedum

Weather History for KCKB - October, 2019

Change the Weather History Date:

Saturday, October 26, 2019

  Actual Average Record
Temperature  
Mean Temperature 60 °F -  
Max Temperature 68 °F 61 °F 82 °F (2010)
Min Temperature 52 °F 38 °F 18 °F (1930)
Degree Days  
Heating Degree Days 5    
Month to date heating degree days 154  
Growing Degree Days 9 (Base 50)    
Moisture  
Dew Point 48 °F    
Average Humidity 65    
Maximum Humidity 78    
Minimum Humidity 52    
Precipitation  
Precipitation 0.12 in - - ()
Month to date precipitation 2.03  
Year to date precipitation 34.10  
Sea Level Pressure  
Sea Level Pressure 30.04 in    
Wind  
Wind Speed 5 mph (ESE)    
Max Wind Speed 18 mph    
Max Gust Speed 25 mph    
Visibility 10 miles    
Events Rain    
Averages and records for this station are not official NWS values.
T = Trace of Precipitation, MM = Missing Value Source: NWS Daily Summary

Daily Weather History Graph

Daily Weather History Graph

Search for Another Location

Airport or City:

Astronomy

Oct. 26, 2019 Rise Set
Actual Time 7:41 AM EDT 6:27 PM EDT
Civil Twilight 7:14 AM EDT 6:54 PM EDT
Nautical Twilight 6:43 AM EDT 7:26 PM EDT
Astronomical Twilight 6:11 AM EDT 7:57 PM EDT
Moon 5:36 AM EDT (10/26) 6:00 PM EDT (10/26)
Length of Visible Light 11h 40m
Length of Day
10h 45m
Waning Crescent, 3% of the Moon is Illuminated
Oct 26
Waning Crescent
Oct 27
New
Nov 4
First Quarter
Nov 12
Full
Nov 19
Last Quarter

Hourly Weather History & Observations

Time (EDT) Temp. Dew Point Humidity Pressure Visibility Wind Dir Wind Speed Gust Speed Precip Events Conditions
12:53 AM 54.0 °F 46.0 °F 75% 30.20 in 10.0 mi Calm Calm - N/A   Mostly Cloudy
1:53 AM 54.0 °F 45.0 °F 72% 30.19 in 10.0 mi South 4.6 mph - N/A   Overcast
2:53 AM 53.1 °F 44.1 °F 71% 30.18 in 10.0 mi Calm Calm - N/A   Overcast
3:53 AM 54.0 °F 44.1 °F 69% 30.17 in 10.0 mi Calm Calm - N/A   Mostly Cloudy
4:53 AM 52.0 °F 45.0 °F 77% 30.15 in 10.0 mi NNE 3.5 mph - N/A   Overcast
5:53 AM 53.1 °F 45.0 °F 74% 30.16 in 10.0 mi Calm Calm - N/A   Overcast
6:53 AM 54.0 °F 45.0 °F 72% 30.15 in 10.0 mi Calm Calm - N/A   Overcast
7:53 AM 54.0 °F 45.0 °F 72% 30.14 in 10.0 mi ENE 3.5 mph - 0.00 in Rain Light Rain
8:53 AM 55.0 °F 45.0 °F 69% 30.15 in 10.0 mi East 3.5 mph - 0.00 in Rain Light Rain
9:53 AM 55.9 °F 46.0 °F 69% 30.14 in 10.0 mi Calm Calm - 0.00 in Rain Light Rain
10:53 AM 57.0 °F 48.0 °F 72% 30.12 in 10.0 mi East 4.6 mph - 0.00 in Rain Light Rain
11:53 AM 57.9 °F 50.0 °F 75% 30.09 in 10.0 mi East 5.8 mph - 0.01 in Rain Light Rain
12:53 PM 61.0 °F 52.0 °F 72% 30.06 in 10.0 mi East 4.6 mph - 0.00 in   Overcast
1:53 PM 62.1 °F 53.1 °F 72% 30.02 in 10.0 mi East 6.9 mph - 0.00 in   Overcast
2:53 PM 64.0 °F 52.0 °F 65% 29.98 in 10.0 mi East 8.1 mph - N/A   Overcast
3:53 PM 66.0 °F 50.0 °F 56% 29.96 in 10.0 mi SE 6.9 mph 18.4 mph N/A   Mostly Cloudy
4:53 PM 66.0 °F 48.9 °F 54% 29.93 in 10.0 mi East 5.8 mph - N/A   Partly Cloudy
5:53 PM 66.9 °F 48.0 °F 51% 29.92 in 10.0 mi East 6.9 mph - 0.00 in Rain Light Rain
6:53 PM 66.0 °F 48.9 °F 54% 29.93 in 10.0 mi ESE 8.1 mph - 0.00 in   Overcast
7:53 PM 66.9 °F 48.0 °F 51% 29.93 in 10.0 mi SSE 4.6 mph - N/A   Overcast
8:53 PM 66.9 °F 48.9 °F 52% 29.88 in 10.0 mi ESE 9.2 mph - N/A   Mostly Cloudy
9:53 PM 66.9 °F 51.1 °F 57% 29.84 in 10.0 mi SE 8.1 mph - 0.00 in   Scattered Clouds
10:53 PM 66.9 °F 52.0 °F 59% 29.83 in 10.0 mi ESE 6.9 mph - 0.00 in Rain Light Rain
11:53 PM 63.0 °F 55.9 °F 78% 29.80 in 7.0 mi SE 8.1 mph - 0.07 in Rain Light Rain